TimeCST,TemperatureF,Dew PointF,Humidity,Sea Level PressureIn,VisibilityMPH,Wind Direction,Wind SpeedMPH,Gust SpeedMPH,PrecipitationIn,Events,Conditions,WindDirDegrees,DateUTC
12:08 AM,39.2,33.8,81,30.06,10.0,West,4.6,-,N/A,,Scattered Clouds,260,2013-02-14 06:08:00
12:53 AM,39.0,34.0,82,30.06,10.0,WSW,4.6,-,N/A,,Clear,250,2013-02-14 06:53:00
1:53 AM,36.0,30.9,82,30.06,8.0,Calm,Calm,-,N/A,,Clear,0,2013-02-14 07:53:00
2:53 AM,36.0,33.1,89,30.06,4.0,Calm,Calm,-,N/A,,Clear,0,2013-02-14 08:53:00
3:25 AM,33.8,32.0,93,30.04,1.8,Calm,Calm,-,N/A,,Clear,0,2013-02-14 09:25:00
3:42 AM,35.6,32.0,87,30.04,3.0,Calm,Calm,-,N/A,,Clear,0,2013-02-14 09:42:00
3:51 AM,35.6,32.0,87,30.04,1.8,Calm,Calm,-,N/A,,Clear,0,2013-02-14 09:51:00
3:53 AM,35.1,32.0,89,30.05,1.2,Calm,Calm,-,N/A,,Clear,0,2013-02-14 09:53:00
4:02 AM,35.6,32.0,87,30.04,0.5,Calm,Calm,-,N/A,Fog,Fog,0,2013-02-14 10:02:00
4:09 AM,33.8,30.2,87,30.04,0.2,Calm,Calm,-,N/A,Fog,Fog,0,2013-02-14 10:09:00
4:23 AM,35.6,32.0,87,30.04,0.5,Calm,Calm,-,N/A,Fog,Fog,0,2013-02-14 10:23:00
4:33 AM,33.8,30.2,87,30.04,0.2,Calm,Calm,-,N/A,Fog,Fog,0,2013-02-14 10:33:00
4:50 AM,33.8,30.2,87,30.04,0.5,Calm,Calm,-,N/A,Fog,Fog,0,2013-02-14 10:50:00
4:53 AM,33.1,30.9,92,30.05,0.5,Calm,Calm,-,N/A,Fog,Fog,0,2013-02-14 10:53:00
5:10 AM,32.0,30.2,93,30.04,2.0,Calm,Calm,-,N/A,,Clear,0,2013-02-14 11:10:00
5:20 AM,32.0,30.2,93,30.04,1.2,Calm,Calm,-,N/A,,Clear,0,2013-02-14 11:20:00
5:25 AM,30.2,28.4,93,30.05,0.8,Calm,Calm,-,N/A,,Mist,0,2013-02-14 11:25:00
5:41 AM,30.2,28.4,93,30.05,1.2,South,3.5,-,N/A,,Partly Cloudy,170,2013-02-14 11:41:00
6:04 AM,30.2,28.4,93,30.06,0.2,SSE,3.5,-,N/A,Fog,Light Freezing Fog,160,2013-02-14 12:04:00
6:21 AM,30.2,26.6,86,30.07,0.2,SE,3.5,-,N/A,Fog,Light Freezing Fog,130,2013-02-14 12:21:00
6:28 AM,30.2,28.4,93,30.07,0.2,Calm,Calm,-,N/A,Fog,Light Freezing Fog,0,2013-02-14 12:28:00
6:53 AM,30.9,28.0,89,30.09,0.5,South,3.5,-,N/A,Fog,Light Freezing Fog,170,2013-02-14 12:53:00
6:56 AM,30.2,28.4,93,30.08,1.2,South,3.5,-,N/A,,Clear,170,2013-02-14 12:56:00
6:59 AM,30.2,28.4,93,30.08,3.0,South,3.5,-,N/A,,Clear,170,2013-02-14 12:59:00
7:53 AM,37.0,34.0,89,30.11,7.0,South,4.6,-,N/A,,Clear,170,2013-02-14 13:53:00
8:53 AM,44.1,37.0,76,30.09,10.0,WSW,3.5,-,N/A,,Clear,250,2013-02-14 14:53:00
9:53 AM,50.0,37.9,63,30.09,10.0,WSW,8.1,-,N/A,,Clear,250,2013-02-14 15:53:00
10:53 AM,52.0,37.0,57,30.08,10.0,WSW,8.1,-,N/A,,Clear,250,2013-02-14 16:53:00
11:53 AM,55.9,36.0,47,30.06,10.0,West,8.1,-,N/A,,Clear,260,2013-02-14 17:53:00
12:53 PM,59.0,33.1,38,30.04,10.0,WSW,8.1,-,N/A,,Clear,250,2013-02-14 18:53:00
1:53 PM,60.1,30.0,32,30.03,10.0,WSW,8.1,-,N/A,,Clear,250,2013-02-14 19:53:00
2:53 PM,61.0,30.9,32,30.02,10.0,SSW,6.9,-,N/A,,Clear,210,2013-02-14 20:53:00
3:53 PM,61.0,30.0,31,30.03,10.0,WNW,10.4,-,N/A,,Clear,300,2013-02-14 21:53:00
4:53 PM,59.0,33.1,38,30.04,10.0,West,6.9,-,N/A,,Clear,270,2013-02-14 22:53:00
5:53 PM,54.0,33.1,45,30.05,10.0,WSW,5.8,-,N/A,,Clear,240,2013-02-14 23:53:00
6:53 PM,50.0,33.1,52,30.06,10.0,SSW,5.8,-,N/A,,Clear,210,2013-02-15 00:53:00
7:53 PM,48.9,34.0,56,30.06,10.0,SW,5.8,-,N/A,,Clear,220,2013-02-15 01:53:00
8:53 PM,48.9,34.0,56,30.07,10.0,SW,3.5,-,N/A,,Clear,220,2013-02-15 02:53:00
9:53 PM,46.0,34.0,63,30.08,10.0,SSW,4.6,-,N/A,,Clear,200,2013-02-15 03:53:00
10:53 PM,43.0,34.0,71,30.07,10.0,SSW,3.5,-,N/A,,Clear,200,2013-02-15 04:53:00
11:53 PM,42.1,33.1,70,30.07,10.0,Calm,Calm,-,N/A,,Clear,0,2013-02-15 05:53:00